Flag for Germany Weather past 2 weeks in Fellbach, Baden-Württemberg, Germany

Now
39 °F

Partly cloudy.


Feels Like: 37 °F
Forecast: 34 / 46 °F
Wind: 3 mph from North

Location: Stuttgart-Echterdingen

Current Time: Dec 23, 2014 at 5:37:18 AM

Latest Report: Dec 23, 2014 at 5:20 AM


Visibility: N/A

Pressure: 30.27 "Hg

Humidity: 75%

Dew point: 32 °F

Location of FellbachLocation

Historic Weather in Fellbach — Graph

°F

Fellbach temperature yesterday

Maximum temperature yesterday: 50 °F (at 7:20 PM)
Minimum temperature yesterday: 41 °F (at 12:20 AM)
Average temperature yesterday: 45 °F

Past Weeks' High & Low Weather Summary

 TemperatureHumidityPressure
High54 °F (Dec 13, 3:20 PM)100% (Dec 9, 1:20 AM)30.51 "Hg (Dec 9, 1:20 AM)
Low28 °F (Dec 10, 3:20 AM)53% (Dec 23, 1:20 AM)29.74 "Hg (Dec 12, 4:50 PM)
Average43 °F82%30.09 "Hg
* Reported Dec 8 4:20 AM — Dec 23 4:20 AM, Fellbach, Weather by CustomWeather, © 2014

Note: Actual official high and low records may vary slightly from our data, if they occured in-between our weather recording intervals... More about our weather records

Advertising

Fellbach weather history for previous 24 hours

 ConditionsComfort  
Time TempWeatherWind HumidityBarometerVisibility
4:20 AM
Dec 23
41 °FPartly cloudy.2 mph70%30.27 "HgN/A
3:50 AM43 °FPassing clouds.2 mph61%30.27 "HgN/A
3:20 AM43 °FPassing clouds.1 mph66%30.27 "HgN/A
2:50 AM43 °FPassing clouds.5 mph61%30.27 "HgN/A
2:20 AM45 °FPartly cloudy.7 mph57%30.27 "HgN/A
1:50 AM45 °FClear.8 mph57%30.27 "Hg10 mi
1:20 AM46 °FClear.8 mph53%30.24 "Hg10 mi
12:50 AM46 °FClear.8 mph57%30.27 "Hg10 mi
12:20 AM46 °FPartly cloudy.9 mph62%30.27 "HgN/A
11:20 PM
Dec 22
46 °FPartly cloudy.2 mph71%30.27 "HgN/A
10:50 PM48 °FPartly cloudy.2 mph62%30.27 "HgN/A
10:20 PM48 °FPartly cloudy.6 mph66%30.27 "HgN/A
9:50 PM48 °FPassing clouds.5 mph66%30.27 "HgN/A
9:20 PM48 °FClear.9 mph66%30.27 "Hg10 mi
8:50 PM48 °FClear.10 mph66%30.27 "Hg10 mi
8:20 PM48 °FClear.10 mph66%30.27 "Hg10 mi
7:50 PM48 °FClear.10 mph66%30.27 "Hg10 mi
7:20 PM50 °FClear.12 mph62%30.24 "Hg10 mi
6:50 PM48 °FPassing clouds.7 mph66%30.27 "HgN/A
6:20 PM46 °FPassing clouds.6 mph76%30.27 "HgN/A
5:50 PM48 °FClear.10 mph71%30.27 "Hg10 mi
5:20 PM46 °FClear.5 mph71%30.24 "Hg10 mi
4:50 PM46 °FClear.8 mph71%30.24 "Hg10 mi
4:20 PM46 °FSunny.9 mph71%30.24 "Hg10 mi
3:50 PM48 °FSunny.10 mph66%30.24 "Hg10 mi
3:20 PM48 °FSunny.13 mph66%30.27 "Hg10 mi
2:50 PM48 °FSunny.14 mph66%30.24 "Hg10 mi
2:20 PM48 °FSunny.12 mph66%30.27 "Hg10 mi
1:50 PM48 °FSunny.9 mph66%30.30 "Hg10 mi
1:20 PM48 °FPartly sunny.8 mph66%30.30 "HgN/A
12:50 PM46 °FPartly sunny.10 mph71%30.30 "HgN/A
12:20 PM46 °FPartly sunny.6 mph71%30.33 "HgN/A
11:50 AM45 °FPartly sunny.6 mph76%30.33 "HgN/A
11:20 AM45 °FPartly sunny.6 mph71%30.33 "HgN/A
10:50 AM43 °FPartly sunny.12 mph76%30.33 "HgN/A
10:20 AM43 °FPartly sunny.10 mph76%30.33 "HgN/A
9:50 AM41 °FPartly sunny.9 mph76%30.33 "HgN/A
9:20 AM41 °FPartly sunny.7 mph76%30.36 "HgN/A
8:50 AM41 °FPartly sunny.9 mph76%30.36 "HgN/A
8:20 AM41 °FPartly sunny.9 mph76%30.36 "HgN/A
7:50 AM41 °FPassing clouds.9 mph76%30.33 "HgN/A
7:20 AM41 °FPassing clouds.9 mph76%30.33 "HgN/A
6:50 AM41 °FPassing clouds.9 mph76%30.33 "HgN/A
6:20 AM41 °FPassing clouds.10 mph76%30.33 "HgN/A
5:50 AM41 °FPassing clouds.9 mph76%30.33 "HgN/A
5:20 AM41 °FOvercast.8 mph76%30.36 "HgN/A
Weather by CustomWeather, © 2014

See weather overviewHow to use our weather pages